{"data":{"norad_id":48639,"epoch":"2026-09-19T21:52:38.822880Z","epoch_age_seconds":87864,"freshness":"FRESH","line1":"1 48639U 21044B   26262.91156045  .00003282  00000+0  11749-3 0  9999","line2":"2 48639  53.1580 289.9786 0001412  90.5633 269.5530 15.31693404293580","mean_motion":15.31693404,"eccentricity":0.0001412,"inclination_deg":53.158,"raan_deg":289.9786,"arg_perigee_deg":90.5633,"mean_anomaly_deg":269.553,"bstar":0.00011749,"rev_number":29358,"period_min":94.013592814297,"perigee_km":469.79259342092,"apogee_km":471.72672183704,"semimajor_km":6848.896657629,"source":"CELESTRAK","updated_at":"2026-09-20T09:00:39.139719Z"}}